Weather History for Vancouver, WA

Change the Weather History Date:

Wednesday, September 26, 2012

  Actual Average Record
Temperature  
Mean Temperature 59 °F 60 °F  
Max Temperature 74 °F 72 °F 92 °F (1949)
Min Temperature 43 °F 49 °F 30 °F (1908)
Degree Days  
Heating Degree Days 6    
Month to date heating degree days 59  
Since 1 July heating degree days 74  
Cooling Degree Days 0    
Month to date cooling degree days 46  
Year to date cooling degree days 393  
Growing Degree Days 8 (Base 50)    
Moisture  
Dew Point 47 °F    
Average Humidity 69    
Maximum Humidity 100    
Minimum Humidity 38    
Precipitation  
Precipitation 0.00 in 0.09 in 1.20 in (1948)
Month to date precipitation 0.04 1.22  
Year to date precipitation 26.73 23.05  
Snow  
Snow 0.00 in - - ()
Month to date snowfall 0.0  
Snow Depth 0.00 in    
Sea Level Pressure  
Sea Level Pressure 30.06 in    
Wind  
Wind Speed 3 mph (NW)    
Max Wind Speed 10 mph    
Max Gust Speed 20 mph    
Visibility 8 miles    
Events      
T = Trace of Precipitation, MM = Missing Value Source: NWS Daily Summary

Daily Weather History Graph

Daily Weather History Graph

Search for Another Location

Airport:

Trip Planner

Search our weather history database for the weather conditions in past years. The results will help you decide how hot, cold, wet, or windy it might be!

Date:

Astronomy

Sep. 26, 2012 Rise Set
Actual Time 7:03 AM PDT 6:59 PM PDT
Civil Twilight 6:33 AM PDT 7:28 PM PDT
Nautical Twilight 5:59 AM PDT 8:03 PM PDT
Astronomical Twilight 5:23 AM PDT 8:38 PM PDT
Moon 5:08 PM PDT (9/26) 3:26 AM PDT (9/26)
Length of Visible Light 12h 55m
Length of Day
11h 55m
Waxing Gibbous, 88% of the Moon is Illuminated
Sep 26
Waxing Gibbous
Sep 29
Full
Oct 8
Last Quarter
Oct 15
New
Oct 21
First Quarter

Hourly Weather History & Observations

Time (PDT) Temp. Dew Point Humidity Pressure Visibility Wind Dir Wind Speed Gust Speed Precip Events Conditions
1:53 AM 48.9 °F 46.9 °F 93% 30.09 in 10.0 mi Calm Calm - N/A   Clear
2:53 AM 48.9 °F 46.0 °F 90% 30.09 in 10.0 mi Calm Calm - N/A   Clear
3:53 AM 48.0 °F 45.0 °F 89% 30.09 in 10.0 mi Calm Calm - N/A   Clear
4:30 AM 44.6 °F 44.6 °F 100% 30.08 in 9.0 mi Calm Calm - N/A   Scattered Clouds
4:44 AM 44.6 °F 42.8 °F 93% 30.08 in 1.8 mi Calm Calm - N/A   Scattered Clouds
4:48 AM 44.6 °F 42.8 °F 93% 30.08 in 1.0 mi Calm Calm - N/A   Mist
4:53 AM 45.0 °F 44.1 °F 97% 30.08 in 1.5 mi Calm Calm - N/A   Scattered Clouds
5:21 AM 44.6 °F 44.6 °F 100% 30.08 in 1.8 mi Calm Calm - N/A   Scattered Clouds
5:39 AM 44.6 °F 44.6 °F 100% 30.08 in 2.5 mi Calm Calm - N/A   Mostly Cloudy
5:46 AM 44.6 °F 44.6 °F 100% 30.08 in 8.0 mi Calm Calm - N/A   Mostly Cloudy
5:53 AM 45.0 °F 43.0 °F 93% 30.08 in 10.0 mi Calm Calm - N/A   Mostly Cloudy
6:17 AM 48.2 °F 46.4 °F 93% 30.08 in 10.0 mi Calm Calm - N/A   Overcast
6:53 AM 48.9 °F 46.9 °F 93% 30.09 in 10.0 mi Calm Calm - N/A   Overcast
7:16 AM 50.0 °F 46.4 °F 87% 30.09 in 7.0 mi East 3.5 mph - N/A   Overcast
7:53 AM 50.0 °F 48.0 °F 93% 30.10 in 7.0 mi Calm Calm - N/A   Overcast
8:53 AM 52.0 °F 48.0 °F 86% 30.10 in 10.0 mi ENE 3.5 mph - N/A   Overcast
9:53 AM 54.0 °F 46.9 °F 77% 30.11 in 10.0 mi NNW 4.6 mph - N/A   Overcast
10:39 AM 55.4 °F 48.2 °F 77% 30.10 in 10.0 mi North 4.6 mph - N/A   Overcast
10:53 AM 57.0 °F 48.0 °F 72% 30.09 in 10.0 mi WNW 5.8 mph - N/A   Overcast
11:32 AM 59.0 °F 48.2 °F 67% 30.09 in 10.0 mi WNW 8.1 mph - N/A   Scattered Clouds
11:53 AM 57.9 °F 48.0 °F 70% 30.08 in 10.0 mi WNW 9.2 mph - N/A   Scattered Clouds
12:53 PM 62.1 °F 48.9 °F 62% 30.06 in 10.0 mi NW 8.1 mph - N/A   Clear
1:53 PM 64.9 °F 48.0 °F 54% 30.04 in 10.0 mi Variable 5.8 mph - N/A   Clear
3:53 PM 71.1 °F 48.0 °F 44% 30.00 in 10.0 mi Calm Calm - N/A   Clear
4:53 PM 73.0 °F 46.0 °F 38% 29.99 in 10.0 mi NW 5.8 mph - N/A   Clear
5:53 PM 72.0 °F 48.0 °F 43% 29.98 in 10.0 mi NW 5.8 mph - N/A   Clear
6:53 PM 69.1 °F 50.0 °F 51% 29.98 in 10.0 mi NW 6.9 mph - N/A   Clear
7:53 PM 64.9 °F 50.0 °F 58% 29.98 in 10.0 mi WNW 3.5 mph - N/A   Clear
9:53 PM 63.0 °F 50.0 °F 63% 30.00 in 10.0 mi Calm Calm - N/A   Clear
10:53 PM 59.0 °F 48.9 °F 69% 30.01 in 10.0 mi Calm Calm - N/A   Clear
11:53 PM 61.0 °F 48.0 °F 62% 30.00 in 10.0 mi Calm Calm - N/A   Clear